www.pogodaiklimat.ru

Погода и климат >> Архив погоды >> Россия >> Крым >> Феодосия


АРХИВ ПОГОДЫ в Феодосии

Время (UTC), дата Ветер
(напр.,м/с)
 
Видим.   Явления Облачность Т
(С)
Тd
(С)
f
(%)
Тe
(С)
Тes
(С)
Комфортность P
(гПа)
Po
(гПа)
Тmin
(С)
Tmax
(С)
R
(мм)
R24
(мм)
S
(см)
18 17.06 СЗ 2 10 км ясно +24.9 +18.6 68 +30 +30 душно 1012.3 1009.3 +30.7
21 17.06 СЗ 2 10 км ясно +23.4 +18.7 75 +30 +30 очень
душно
1013.7 1010.7
00 18.06 З 2 10 км 4/0
[Ac trans]
+22.8 +20.5 87 +30 +30 очень
душно
1013.7 1010.7
03 18.06 З 1 10 км 6/0
[Ac trans Ci fib]
+22.2 +20.3 89 +28 +29 душно 1012.6 1009.5 +22.2
06 18.06 СВ 3 10 км ясно +27.6 +18.3 57 +32 +40 очень
душно
1013.7 1010.7 +22.0
09 18.06 СВ 4
{10}
20 км 3/3 600 м
[Cu med, cong]
+30.0 +13.3 36 +31 +42 жарко 1013.6 1010.7
12 18.06 СВ 4
{10}
20 км ясно +30.4 +11.4 31 +31 +41 жарко 1013.6 1010.7
15 18.06 СВ 4 20 км ясно +28.2 +10.4 33 +29 +31 жарко 1013.7 1010.7
18 18.06 З 2 20 км ясно +25.4 +12.2 44 +27 +27 жарко 1013.7 1010.7 +31.1
21 18.06 З 1 10 км ясно +22.2 +17.3 74 +27 +27 душно 1013.7 1010.7
00 19.06 З 2 10 км ясно +22.6 +18.1 76 +28 +28 душно 1013.7 1010.7
03 19.06 З 2 10 км ясно +22.3 +18.7 80 +28 +28 душно 1012.3 1009.3 +21.5
06 19.06 С 3 10 км ясно +29.2 +19.2 55 +35 +43 очень
душно
1013.6 1010.7 +21.5
09 19.06 СВ 3 20 км 4/3 600 м
[Cu hum Ci fib]
+30.6 +10.5 29 +31 +40 жарко 1012.2 1009.3
12 19.06 СВ 3 20 км 6/0
[Ci fib]
+31.1 +12.0 31 +32 +37 жарко 1012.2 1009.3
15 19.06 С 3 20 км 6/0
[Ci fib]
+29.6 +9.7 29 +29 +31 жарко 1010.9 1008.0
18 19.06 З 1 20 км 6/0
[Ci fib]
+26.2 +14.6 49 +29 +29 жарко 1010.4 1007.3 +32.2
21 19.06 З 1 10 км 8/0
[Ci fib]
+23.5 +19.2 77 +28 +28 душно 1012.3 1009.3
00 20.06 З 1 10 км 4/0
[Ci fib]
+23.4 +19.3 78 +30 +30 очень
душно
1011.0 1008.0
03 20.06 З 2 10 км 9/0
[Ci fib]
+23.6 +21.8 90 +30 +31 очень
душно
1010.3 1007.2 +23.4
06 20.06 СВ 2 10 км 9/0
[Ci]
+29.2 +19.8 57 +35 +36 очень
душно
1010.9 1008.0 +23.4
09 20.06 СВ 3 10 км 9/3 1000 м
[Cu hum Ci fib]
+32.2 +19.1 46 +38 +39 очень
душно
1010.9 1008.0
12 20.06 СВ 5-10
{10}
10 км 8/0
[Ci]
+32.0 +16.1 38 +35 +41 очень
душно
1009.4 1006.4
15 20.06 С 4
{10}
10 км 8/0
[Ci fib]
+30.0 +16.5 44 +33 +35 душно 1009.1 1006.1
18 20.06 СЗ 2 10 км 4/0
[Ci fib]
+27.8 +15.2 46 +30 +30 жарко 1009.7 1006.6 +33.3
21 20.06 З 2 10 км 4/0
[Ac trans]
+26.2 +19.1 65 +31 +31 очень
душно
1011.0 1008.0
00 21.06 З 3 10 км ясно +25.4 +20.4 74 +31 +31 очень
душно
1011.0 1008.0
03 21.06 З 2 10 км 4/4 600 м
[Sc]
+24.4 +20.6 79 +30 +31 очень
душно
1010.7 1007.6 +24.4
06 21.06 С 2 10 км ясно +30.4 +17.5 46 +34 +44 очень
душно
1010.9 1008.0 +24.4
09 21.06 СВ 3 20 км ясно +33.8 +18.3 40 +38 +54 опасность
солнечного
удара
1010.9 1008.0
12 21.06 В 2 20 км 3/3 600 м
[Cb calv]
+23.5 +16.3 64 +27 +39 душно 1012.3 1009.3
15 21.06 СВ 1 20 км 3/0
[]
+31.8 +11.0 28 +32 +35 жарко 1010.9 1008.0
18 21.06 З 2 10 км 4/0
[Ac trans]
+28.7 +18.3 53 +33 +33 очень
душно
1011.0 1008.0 +34.7
21 21.06 СЗ 1 10 км 4/0
[Ac trans]
+26.8 +17.8 58 +31 +31 душно 1012.3 1009.3
00 22.06 З 1 10 км 3/0
[Ci fib]
+24.6 +18.3 68 +29 +29 душно 1012.3 1009.3
03 22.06 СВ 6-12
{12}
10 км 8/8 600 м
[Cb cap]
+26.4 +21.1 73 +33 +33 очень
душно
1012.5 1009.4 +24.3
06 22.06 С 6-10
{16}
10 км слаб. ливневой дождь 9/9 600 м
[Cb cap]
+24.2 +14.6 55 +27 +27 жарко 1013.7 1010.7 +24.2 0.0
09 22.06 В 4
{12}
10 км {ливн. осадки} 9/9 600 м
[Cb cap]
+26.9 +20.7 69 +34 +35 очень
душно
1015.0 1012.0
12 22.06 СЗ 3 10 км в посл. час ливневой дождь 10/10 600 м
[Cb cap]
+23.8 +20.1 80 +29 +29 душно 1013.2 1010.1
15 22.06 С 3
{10}
10 км слаб. ливневой дождь 10/10 600 м
[Cb cap]
+24.6 +19.5 73 +30 +30 очень
душно
1012.8 1009.7 0.8
18 22.06 СЗ 3 10 км в посл. час ливневой дождь 10/10 600 м
[Cb cap]
+20.5 +19.4 93 +25 +25 комфорт 1012.5 1009.4 +27.4 2
21 22.06 З 3
{10}
10 км 9/9 600 м
[Cb cap]
+22.1 +15.0 64 +26 +26 душно 1013.7 1010.7
00 23.06 З 2 10 км 8/8 600 м
[Sc]
+22.5 +14.8 62 +26 +26 жарко 1012.3 1009.3
03 23.06 СЗ 2 10 км 6/6 600 м
[Sc]
+22.6 +15.5 64 +27 +27 душно 1011.2 1008.1 +20.5 0.8
06 23.06 СЗ 2 10 км 4/0
[Ac trans]
+28.6 +14.4 42 +31 +38 жарко 1011.9 1008.8 +20.5
09 23.06 В 2 10 км 3/3 600 м
[Cu med, cong]
+29.6 +16.0 44 +33 +48 душно 1012.2 1009.3
12 23.06 Ю 3 10 км 4/3 600 м
[Cb cap Ac cuf]
+28.4 +14.6 43 +31 +38 душно 1012.3 1009.3
15 23.06 ЮВ 2 10 км 6/4 600 м
[Cb cap Ac cuf Ci fib]
+26.2 +16.4 55 +30 +31 душно 1013.7 1010.7
18 23.06 ЮВ 1 10 км 3/0
[Ci fib]
+24.2 +17.2 65 +28 +28 душно 1012.2 1009.1 +30.7
21 23.06 ЮВ 1 10 км ясно +23.0 +20.0 83 +30 +30 очень
душно
1013.7 1010.7
00 24.06 З 1 10 км ясно +22.0 +20.1 89 +28 +28 душно 1013.7 1010.7
03 24.06 СЗ 1 10 км ясно +21.2 +19.6 91 +26 +27 душно 1012.4 1009.3 +21.2
06 24.06 ЮВ 1 10 км 3/3 600 м
[Cb calv]
+27.0 +19.6 64 +33 +42 очень
душно
1013.7 1010.7 +21.0
09 24.06 Ю 1 10 км 2 балла +28.8 +17.0 49 +33 +50 очень
душно
1013.7 1010.7
12 24.06 Ю 2 10 км 9 баллов +29.0 +15.5 44 +32 +33 душно 1013.7 1010.7
15 24.06 ЮВ 2 10 км 7 баллов +26.8 +16.7 54 +30 +31 душно 1013.7 1010.7

 

Местоположение метеостанции Феодосия (Крым, Россия): широта 45.03 долгота 35.38 высота над уровнем моря 26 м.

В архиве по умолчанию представлена погода в Феодосии за последнюю неделю. Архивные данные за месяц целиком и за предыдущие месяцы, начиная с января 2011 года, Вы можете получить, выбрав интересующий диапазон дат из раскрывающегося списка и нажав кнопку "Ввод!".


*Определитесь, кто Вы:
робот инопланетянин человек

Внимание! Время в таблицах - всемирное. Для получения местного времени необходимо прибавить поправку, которая равна 3 ч.

Смотрите также архив погоды в соседних городах и на ближайших метеорологических станциях:

Погода в Владиславовке (Крым, Россия) (16 км)
Погода в Карадаге (Крым, Россия) (20 км)
Погода в Мысовом (Крым, Россия) (58 км)
Погода в Белогорске (Крым, Россия) (61 км)
Погода в Нижнегорском (Крым, Россия) (69 км)
Погода на Ангарском Перевале (Крым, Россия) (87 км)
Погода в Стрелковом (Херсонская область, Украина) (87 км)
Погода в Алуште (Крым, Россия) (87 км)
Погода в Керчи (Крым, Россия) (91 км)
Погода в Симферополе город (Крым, Россия) (100 км)

Пояснения к столбцам:

Ветер - указаны скорость ветра в м/с - средняя за 10 мин, порывы в срок и между сроками (в фигурных скобках) и направление, откуда дует ветер: С - северный, СВ - северо-восточный, В - восточный, ЮВ - юго-восточный, Ю - южный, ЮЗ - юго-западный, З - западный, СЗ - северо-западный.
Видимость - горизонтальная дальность видимости в метрах или километрах. При видимости от 1 до 10 км при отсутствии осадков обычно наблюдается дымка, при ухудшении видимости до 1 км и менее - туман. В сухую погоду видимость может ухудшаться дымом, пылью или мглою.
Явления - указаны атмосферные явления, наблюдавшиеся в срок или в последний час перед сроком; фигурными скобками обозначены явления, наблюдавшиеся между сроками (за 1-3 часа до срока); квадратными скобками обозначены град или гололедные отложения с указанием их диаметра в мм.
Облачность - указаны через наклонную черту общая и нижняя облачность в баллах и высота нижней границы облаков в метрах; квадратными скобками обозначены формы облаков: Ci - перистые, Cs - перисто-слоистые, Cc - перисто-кучевые, Ac - высококучевые, As - высокослоистые, Sc - слоисто-кучевые, Ns - слоисто-дождевые, Cu - кучевые, Cb - кучево-дождевые. Подробнее классификацию облаков см. в Атласе облаков (PDF).
T - Температура воздуха - температура, измеренная на высоте 2 м над землей.
Td - Температура точки росы - температура, при понижении до которой содержащийся в воздухе водяной пар достигнет насыщения.
f - Относительная влажность воздуха - влажноcть воздуха, измеренная на высоте 2 м над землей.
Te - Эффективная температура - температура, которую ощущает одетый по сезону человек в тени. Характеристика душности погоды. При расчете учитывается влияние влажности воздуха и скорости ветра на теплоощущения человека.
Tes - Эффективная температура на солнце - температура, которую ощущает человек, с поправкой на солнечный нагрев. Характеристика знойности погоды. Зависит от высоты солнца над горизонтом, облачности и скорости ветра. Ночью, в пасмурную погоду, а также при ветре 12 м/с и более поправка равна нулю.
P - Атмосферное давление - приведенное к уровню моря атмосферное давление.
Po - Атмосферное давление - измеренное на уровне метеостанции атмосферное давление.
Tmin - Минимальная температура - минимум температуры воздуха на высоте 2 м над землей.
Tmax - Максимальная температура - максимум температуры воздуха на высоте 2 м над землей.
R - Количество осадков - Количество выпавших осадков за период времени, мм. При наведении курсора мыши на число - период времени, за который выпало указанное количество осадков.
R24 - Количество осадков - Количество выпавших осадков за 24 часа, мм.
S - Снежный покров - Высота снежного покрова, см. При наведении курсора мыши на число - состояние снежного покрова и степень покрытия местности в баллах.